• Processing (Info)

  • MPEC 2023-Q70 : 2023 OG11

    The following Minor Planet Electronic Circular may be linked-to from your own Web pages, but must not otherwise be redistributed electronically.

    A form allowing access to any MPEC is at the bottom of this page.


    Read MPEC 2023-Q69 Read MPEC 2023-Q71


    M.P.E.C. 2023-Q70                               Issued 2023 August 21, 23:57 UT
    
         The Minor Planet Electronic Circulars contain information on unusual
             minor planets, routine data on comets and natural satellites,
             and occasional editorial announcements.  They are published
        on behalf of Division F of the International Astronomical Union by the
              Minor Planet Center, Smithsonian Astrophysical Observatory,
                              Cambridge, MA 02138, U.S.A.
    			  
                 Prepared using the Tamkin Foundation Computer Network
    
                                  MPC@CFA.HARVARD.EDU
                URL https://www.minorplanetcenter.net/    ISSN 1523-6714
    
                                    2023 OG11                                
    
    
    Observations:
         K23O11G* C2023 07 23.42243220 10 21.301-10 16 49.30         21.73wXEQ070F51
         K23O11G  C2023 07 23.43227220 10 24.221-10 17 12.31         21.54wXEQ070F51
         K23O11G  C2023 07 23.44217620 10 27.188-10 17 35.64         21.50wXEQ070F51
         K23O11G  C2023 07 23.45184720 10 30.086-10 17 58.70         21.77wXEQ070F51
         K23O11G  C2023 07 23.56479020 11 04.277-10 22 21.34         21.80GVEQ070F51
         K23O11G  C2023 07 23.56543120 11 04.482-10 22 23.06         21.11GVEQ070F51
         K23O11G  C2023 07 25.44564120 22 07.677-11 40 45.99               VEQ070F51
         K23O11G  C2023 08 05.48349621 55 42.386-21 18 51.74         20.53GVEQ070F51
         K23O11G  C2023 08 05.49340721 55 48.340-21 19 23.86         20.58GVEQ070F51
         K23O11G  C2023 08 05.50329421 55 54.279-21 19 55.44         20.61GVEQ070F51
         K23O11G  C2023 08 05.51324821 56 00.304-21 20 27.41         20.52GVEQ070F51
         K23O11G KC2023 08 06.54096322 07 10.266-22 15 00.81         20.35GVEQ070F51
         K23O11G  C2023 08 19.50376300 29 22.393-28 35 27.82         21.30wXEQ070F51
         K23O11G  C2023 08 19.51404100 29 27.692-28 35 31.65         21.30wXEQ070F51
         K23O11G  C2023 08 19.52430100 29 32.933-28 35 35.35         21.37wXEQ070F51
         K23O11G  C2023 08 19.54220600 29 42.075-28 35 40.97         21.23wXEQ070F51
         K23O11G 3C2023 08 20.57235500 38 55.729-28 39 24.86         21.07GVEQ070T14
         K23O11G 3C2023 08 20.57333300 38 56.205-28 39 24.90         21.25GVEQ070T14
         K23O11G 3C2023 08 20.57431600 38 56.682-28 39 25.02         21.36GVEQ070T14
    
    Observer details:
    F51 Pan-STARRS 1, Haleakala.  Observers J. Bulger, T. Lowe, P. Minguez, A.
        Schultz, I. Smith, K. Chambers.  Measurers K. Chambers, T. de Boer, J.
        Bulger, J. Fairlamb, H. Gao, M. Huber, C.-C. Lin, T. Lowe, E. Magnier, P.
        Minguez, Y. Ramanjooloo, A. Schultz, I. Smith, R. Wainscoat, R. Weryk, S.
        Chastel.  1.8-m Ritchey-Chretien + CCD.
    T14 Canada-France-Hawaii Telescope, Maunakea.  Observers R. Wainscoat, H.
        Januszewski, T. Burdullis.  Measurers R. Weryk, R. Wainscoat.  3.6-m
        Canada-France-Hawaii Telescope + CCD.
    
    Orbital elements:
    2023 OG11                                                Earth MOID = 0.0817 AU
    Epoch 2023 Sept. 13.0 TT = JDT 2460200.5                Veres                   
    M   7.76770              (2000.0)            P               Q                  
    n   0.32054462     Peri.  200.25755     +0.85003853     +0.51775799             
    a   2.1145132      Node   128.18416     -0.46471912     +0.82368187             
    e   0.4860717      Incl.    7.07054     -0.24793274     +0.23124629             
    P   3.07           H   25.13          G   0.15           U   8                  
    Residuals in seconds of arc
    230723 F51  0.1+  0.2-    230805 F51  0.1-  0.0     230819 F51  0.0   0.2-
    230723 F51  0.1-  0.0     230805 F51  0.0   0.1-    230819 F51  0.1-  0.0
    230723 F51  0.1+  0.0     230805 F51  0.1-  0.1+    230820 T14  0.0   0.0
    230723 F51  0.2+  0.3-    230805 F51  0.4+  0.1-    230820 T14  0.0   0.0
    230723 F51  0.2-  0.1+    230806 F51  0.2-  0.2+    230820 T14  0.0   0.0
    230723 F51  0.1-  0.2-    230819 F51  0.1-  0.1-
    230725 F51  0.0   0.1+    230819 F51  0.2+  0.1-
    
    Ephemeris:
    2023 OG11                a,e,i = 2.11, 0.49, 7                   q = 1.0867
    Date    TT    R. A. (2000) Decl.     Delta      r    Elong.  Phase     V
    2023 07 22    20 02 53.6 -09 22 47   0.1211  1.1352   169.0     9.9    21.5
    ...
    2023 08 06    22 01 16.7 -21 45 23   0.08637 1.0981   165.2    13.7    20.8
    ...
    2023 08 14    23 32 35.4 -27 13 24   0.08680 1.0887   149.3    28.4    21.3
    ...
    2023 08 20    00 33 51.6 -28 36 33   0.09551 1.0867   139.7    37.0    21.7
    2023 08 21    00 42 38.3 -28 39 02   0.09750 1.0868   138.5    38.1    21.8
    2023 08 22    00 50 57.9 -28 39 07   0.09961 1.0870   137.4    39.1    21.9
    ...
    2023 08 28    01 31 46.5 -28 04 27   0.1144  1.0908   132.5    43.1    22.3
    ...
    2023 09 05    02 05 56.3 -26 38 23   0.1378  1.1026   130.3    44.2    22.7
    ...
    2023 09 20    02 31 27.9 -23 47 17   0.1876  1.1436   134.4    38.9    23.3
    
    M. P. C. Staff               (C) Copyright 2023 MPC           M.P.E.C. 2023-Q70
    


    Read MPEC 2023-Q69 Read MPEC 2023-Q71


    MPEC number:

    Enter an MPEC number in one of the following forms:

    • 1997-B01 (the full form)
    • J97B01 (the packed version of the full form)
    • B01 (the abbreviated form)